Home   Weather   Quesnel   Past weeks

Flag for Canada Past Weather in Quesnel, British Columbia, Canada — Yesterday and Last 2 Weeks

Now
48 °F

Broken clouds.


Feels Like: 46 °F
Forecast: 32 / 49 °F
Wind: 5 mph from East

Location: Quesnel Airport

Current Time: Apr 30, 2017 at 7:58:12 pm

Latest Report: Apr 30, 2017 at 7:00 pm


Visibility: 9 mi

Pressure: 30.14 "Hg

Humidity: 71%

Dew Point: 39 °F

Location of QuesnelLocation

Past Weather in Quesnel — Graph

°F

Quesnel Temperature Yesterday

Maximum temperature yesterday: 50 °F (at 2:23 pm)
Minimum temperature yesterday: 28 °F (at 6:00 am)
Average temperature yesterday: 41 °F

High & Low Weather Summary for the Past Weeks

 TemperatureHumidityPressure
High61 °F (Apr 21, 4:00 pm)100% (Apr 16, 2:00 am)30.45 "Hg (Apr 16, 2:00 am)
Low27 °F (Apr 16, 4:04 am)19% (Apr 25, 8:00 pm)29.61 "Hg (Apr 26, 4:00 am)
Average42 °F72%29.97 "Hg
* Reported Apr 15 6:22 pm — Apr 30 6:44 pm, Quesnel, Weather by CustomWeather, © 2017

Note: Actual official high and low records may vary slightly from our data, if they occured in-between our weather recording intervals... More about our weather records

Advertising

Quesnel Weather History for the Previous 24 Hours

Scroll right to see more
 ConditionsComfort  
Time TempWeatherWind HumidityBarometerVisibility
6:44 pm
Sun, Apr 30
48 °FCloudy.9 mph66%30.13 "Hg5 mi
6:00 pm50 °FMore clouds than sun.10 mph67%30.10 "Hg9 mi
5:00 pm52 °FBroken clouds.7 mph54%30.09 "Hg9 mi
4:00 pm52 °FSunny.12 mph54%30.09 "Hg9 mi
3:31 pm52 °FPartly sunny.16 mph54%30.09 "Hg9 mi
3:00 pm52 °FBroken clouds.5 mph47%30.09 "Hg9 mi
2:00 pm50 °FOvercast.5 mph50%30.09 "Hg9 mi
1:00 pm48 °FPassing clouds.3 mph50%30.08 "Hg9 mi
12:44 pm48 °FPartly sunny.8 mph62%30.08 "Hg9 mi
12:00 pm50 °FScattered clouds.5 mph43%30.06 "Hg9 mi
11:00 am50 °FPartly sunny.6 mph43%30.06 "Hg9 mi
10:00 am46 °FPartly sunny.5 mph66%30.05 "Hg9 mi
9:00 am43 °FScattered clouds.3 mph81%30.05 "Hg9 mi
8:00 am41 °FPassing clouds.5 mph81%30.03 "Hg9 mi
7:10 am36 °FBroken clouds.No wind100%30.02 "Hg9 mi
6:00 am37 °FMostly cloudy.No wind93%29.98 "Hg9 mi
5:00 am36 °FPassing clouds.2 mph93%29.96 "Hg9 mi
4:00 am37 °FOvercast.3 mph93%29.94 "Hg9 mi
3:00 am37 °FOvercast.6 mph93%29.91 "Hg9 mi
2:00 am41 °FOvercast.No wind81%29.88 "Hg9 mi
1:00 am41 °FPartly cloudy.5 mph81%29.87 "Hg9 mi
12:00 am43 °FPassing clouds.7 mph76%29.86 "Hg9 mi
11:00 pm
Sat, Apr 29
43 °FOvercast.7 mph81%29.87 "Hg9 mi
10:00 pm45 °FOvercast.6 mph76%29.87 "Hg9 mi
9:00 pm45 °FOvercast.5 mph76%29.88 "Hg9 mi
8:00 pm43 °FMore clouds than sun.6 mph87%29.89 "Hg9 mi
7:35 pm43 °FMostly cloudy.6 mph87%29.90 "Hg9 mi
7:00 pm45 °FLight rain. Mostly cloudy.7 mph81%29.90 "Hg7 mi
Weather by CustomWeather, © 2017

See weather overviewHow to use our weather pages